Vertical_Velocity
-3 -3 -3 -3 -2 -1 -1 -1 -1 -0 -1 -0 -0 -0 -0 -0 -1 -1 -1 -2 -2 -2 -2 -2 -1 -1 -1 -1 -2 -2 -1 -1 -1 -2 -2 -2 -2 -2 -1 -0 -0 -0 0 1 2 3 3 2 1 0 -0 0 0 0 1 -0 -1 -1 -2 -1 1 3 3 2 2 1 0 -1 -1 -1 -0 2 4 4 3 6 3 0 2 6 7 9 16 23 26 23
-3 -4 -4 -3 -2 -2 -2 -2 -2 -1 -1 -0 -0 -0 -0 -1 -1 -1 -2 -2 -3 -2 -2 -1 -1 -1 -1 -2 -2 -1 -0 -0 -0 -1 -1 -1 -1 -1 -1 -1 -1 -1 -1 -0 0 1 1 -0 -0 0 1 1 2 2 1 0 -1 -1 -2 -1 1 3 3 2 2 1 1 -1 -1 -1 0 2 3 3 1 -0 -1 -0 6 9 8 8 12 22 27 26
-3 -3 -3 -3 -2 -2 -2 -2 -2 -1 -0 -0 -0 -1 -1 -1 -1 -2 -3 -3 -3 -2 -2 -2 -1 -1 -2 -1 -0 0 1 0 -0 -0 -0 -1 -1 -0 1 2 1 0 -0 -0 -0 -0 -1 -1 -1 1 2 4 4 4 2 1 0 -1 -2 -2 1 3 3 2 1 1 1 -0 -1 -1 0 1 1 1 1 1 -0 0 4 4 3 5 12 23 31 32
-4 -3 -4 -4 -3 -2 -3 -3 -2 -2 -1 -1 -1 -1 -1 -1 -1 -2 -3 -3 -3 -3 -3 -2 -2 -1 -1 0 1 1 1 1 -0 -1 -1 -2 -2 -1 1 2 2 2 2 1 1 -0 -1 -1 0 2 4 5 5 5 3 2 1 0 -2 -2 0 2 3 2 1 1 1 -0 -0 -0 1 0 -0 -0 2 2 0 -0 1 0 0 4 15 24 30 30
-4 -3 -4 -4 -3 -2 -3 -3 -3 -3 -2 -1 -1 -1 -2 -1 -1 -1 -2 -2 -3 -4 -4 -3 -2 -1 -0 1 1 1 1 0 -0 -1 -2 -3 -2 -2 0 1 1 2 2 2 1 1 -0 0 2 3 5 5 5 4 4 2 2 1 -2 -2 -0 2 3 2 1 1 2 1 0 0 1 0 0 0 2 1 1 1 1 -0 1 5 14 21 25 23
-4 -4 -4 -3 -3 -3 -3 -3 -3 -3 -2 -1 -1 -1 -1 -1 -1 -1 -2 -4 -5 -5 -4 -3 -2 -1 0 1 1 0 1 0 -0 -1 -2 -2 -2 -1 0 -0 0 1 1 0 0 1 1 2 3 4 4 4 4 4 3 2 2 2 -1 -2 -1 1 2 4 3 1 2 2 1 0 1 1 1 1 2 -0 2 4 5 2 2 5 10 14 15 14
-5 -4 -4 -3 -3 -3 -4 -3 -3 -3 -2 -2 -1 -1 -0 -1 -1 -2 -3 -4 -4 -4 -3 -2 -1 -0 1 1 2 2 2 1 0 -0 -1 -1 -0 0 -0 -1 -1 -1 -2 -2 -1 -1 0 1 2 3 3 4 4 4 3 2 2 3 1 -0 -1 -0 1 5 4 3 2 2 2 1 0 0 1 1 1 -1 1 4 6 1 1 4 9 9 9 8
-5 -4 -3 -2 -3 -3 -3 -4 -4 -4 -3 -2 -2 -1 -1 -1 -2 -2 -2 -2 -3 -3 -4 -3 -2 -0 -0 0 1 1 1 1 1 1 0 1 1 -0 -2 -4 -4 -3 -3 -3 -3 -2 -0 1 1 2 2 3 4 4 2 2 2 3 2 2 0 -1 0 4 4 3 2 2 2 1 -0 0 1 2 1 -1 -0 2 3 -1 -1 2 8 8 7 6
-4 -4 -3 -3 -2 -2 -2 -3 -4 -4 -3 -3 -2 -2 -2 -1 -1 -1 -0 -3 -5 -6 -5 -4 -3 -2 -1 0 1 1 1 1 0 0 1 1 -0 -2 -5 -6 -6 -5 -4 -4 -3 -2 -1 0 1 1 2 3 4 4 3 2 2 3 2 1 -0 -1 -0 3 3 2 1 3 2 1 -0 -0 1 2 1 -1 -1 -0 -0 -2 -2 -0 4 5 4 4
-4 -4 -4 -4 -3 -3 -2 -3 -4 -4 -3 -3 -2 -2 -1 -1 -0 -0 -2 -5 -6 -6 -4 -3 -1 -0 2 3 3 2 2 2 2 1 1 -1 -3 -5 -7 -7 -7 -6 -5 -5 -4 -3 -1 -0 1 2 3 4 5 5 3 1 1 2 3 1 -1 -2 -1 2 2 1 1 3 3 1 -0 -1 1 2 3 -0 -2 -2 -2 -1 -1 -2 -3 -0 1 1
-4 -4 -4 -4 -4 -3 -3 -4 -4 -4 -4 -3 -2 -2 -2 -2 -1 -1 -2 -4 -5 -5 -4 -3 -1 1 3 2 1 1 1 2 3 4 3 -0 -3 -5 -7 -7 -7 -6 -5 -5 -5 -4 -2 -1 1 3 4 6 6 5 3 1 0 2 3 1 -1 -2 -2 -0 0 1 1 3 3 1 -1 -1 3 8 10 3 -1 -3 -2 -1 -1 -2 -4 -3 -1 -0
-4 -4 -4 -4 -4 -3 -3 -4 -5 -5 -4 -3 -3 -3 -3 -3 -2 -2 -2 -3 -5 -6 -6 -3 -1 1 1 -1 -1 -1 -0 -1 -2 -2 -2 -3 -4 -5 -6 -6 -4 -2 -3 -4 -4 -4 -3 -2 1 3 6 7 6 6 4 3 2 2 3 3 1 -1 -2 -1 -1 0 2 4 3 1 -2 -1 5 11 13 5 -1 -4 -3 -2 -2 -2 -3 -2 -0 2
-4 -5 -4 -5 -4 -4 -4 -4 -4 -4 -4 -4 -3 -3 -2 -2 -1 -1 -2 -4 -5 -6 -3 0 1 1 1 1 1 0 -1 -3 -4 -4 -6 -6 -7 -8 -9 -6 -1 3 2 -0 -1 -1 -1 -0 1 3 5 6 6 6 6 5 2 1 1 4 2 -1 -2 -2 -1 0 2 4 3 0 -4 1 6 11 11 4 -1 -3 -3 -3 -2 -2 -2 -3 -1 1
-4 -4 -5 -5 -5 -5 -5 -5 -4 -4 -3 -3 -3 -2 -2 -2 -2 -2 -3 -5 -6 -5 -1 0 0 0 1 1 0 -1 -2 -1 1 3 1 -2 -6 -9 -11 -6 -1 2 2 1 2 2 1 2 3 4 5 6 6 6 7 6 2 -2 -3 2 2 0 -2 -2 -1 0 3 4 3 -1 -4 2 8 11 9 3 -1 -3 -3 -3 -2 -2 -2 -2 -1 1
-4 -4 -4 -4 -5 -5 -6 -5 -4 -4 -5 -4 -4 -3 -4 -4 -4 -4 -4 -5 -5 -4 -3 -2 -0 1 0 -3 -5 -4 -1 1 1 0 -3 -2 -3 -4 -5 -1 3 4 3 1 1 1 2 3 4 5 6 6 6 6 6 6 1 -4 -8 -1 2 2 -1 -1 -1 0 3 4 2 -2 -4 3 8 10 8 2 -1 -3 -2 -2 -1 -1 -3 -0 0 0
-3 -4 -4 -4 -5 -6 -6 -5 -5 -5 -6 -6 -5 -5 -4 -4 -4 -4 -4 -4 -4 -4 -3 -1 1 1 -1 -2 -1 0 -1 -1 -4 -7 -7 -4 -4 -4 -3 2 5 7 4 2 1 2 3 4 4 4 6 6 5 3 2 -0 -4 -8 -9 -0 3 3 0 -0 -0 0 3 4 2 -2 -4 3 8 11 7 2 -1 -2 -2 -1 -1 -1 -1 1 0 -1
-3 -3 -4 -4 -5 -6 -6 -6 -5 -6 -6 -6 -5 -5 -4 -3 -3 -3 -4 -4 -4 -4 -2 -0 -1 -2 -4 1 3 2 -1 -2 -3 -2 2 1 -3 -7 -5 -1 1 1 -1 -1 1 3 4 5 6 7 8 6 3 2 -0 -6 -9 -9 -6 1 4 4 2 1 -0 -0 2 3 1 -2 -4 2 8 10 6 1 -1 -1 -1 -0 -1 -2 -4 -3 -2 -0
-2 -2 -3 -4 -4 -5 -5 -5 -6 -6 -7 -6 -6 -5 -4 -4 -4 -4 -4 -4 -4 -4 -1 1 -0 -1 -1 -1 -4 -5 -2 -1 1 3 6 -0 -4 -5 -0 3 2 -1 -3 -0 1 2 1 3 6 9 10 7 5 2 -1 -5 -7 -6 -1 1 3 5 3 1 -1 -1 1 2 0 -2 -2 2 6 7 3 0 -0 -0 0 1 -1 -3 -5 -2 -1 -0
-1 -2 -2 -3 -3 -4 -4 -5 -5 -6 -6 -5 -4 -4 -3 -4 -4 -4 -3 -4 -3 -2 -0 -1 -0 0 1 -1 -1 0 3 1 2 2 -1 -5 -3 1 7 10 9 6 3 2 2 2 4 6 7 8 8 7 4 2 -2 -4 -4 -4 -0 -0 4 8 7 2 -1 -2 0 2 1 -0 -0 3 5 4 1 0 1 1 1 0 -0 -2 -2 -1 -1 -2
-0 -1 -2 -2 -2 -3 -3 -4 -5 -5 -5 -4 -4 -3 -3 -3 -3 -3 -3 -3 -2 -1 -0 -0 -0 -0 -1 2 7 9 6 6 5 2 -3 -3 -1 1 4 6 5 3 1 -1 -0 2 7 10 11 11 9 7 4 0 -3 -3 -3 -2 -2 0 6 11 11 4 -0 -2 2 4 3 2 1 2 4 4 3 1 1 0 0 -0 -0 -1 -1 -1 -2 -2
0 -0 -1 -2 -1 -2 -2 -3 -4 -4 -4 -4 -3 -3 -3 -3 -3 -2 -2 -2 -1 -1 -0 1 1 1 2 3 1 -2 -3 0 -0 -1 -0 4 5 4 3 2 -0 -3 -5 -3 1 4 6 7 8 9 8 7 5 2 -3 -3 -3 -2 -2 0 7 13 12 5 0 -1 2 5 5 2 -0 1 2 3 3 2 2 1 1 0 0 -0 -0 -1 -1 -0
-0 -1 -2 -1 -1 -1 -2 -2 -3 -3 -3 -2 -2 -1 -1 -2 -2 -2 -2 -1 -1 -1 -0 -0 1 2 4 3 -1 -3 -1 -3 -5 -3 4 6 6 4 5 4 3 1 0 3 5 7 5 6 6 6 6 6 4 1 -3 -3 -2 -2 -2 0 7 12 11 5 -0 -2 2 6 5 2 -1 0 3 4 4 3 3 3 2 1 1 0 0 0 1 2
-2 -2 -2 -1 -1 -1 -1 -2 -2 -2 -1 0 1 1 -0 -1 -1 -1 -1 -1 -0 0 1 2 3 4 3 1 1 2 3 1 3 7 8 1 -2 -0 3 3 3 2 2 4 4 4 3 4 6 8 8 7 4 1 -4 -2 -2 -2 -2 0 5 9 9 4 -1 -2 1 5 4 1 -1 1 4 6 7 5 4 3 2 1 0 1 1 2 2 2
-3 -3 -2 -2 -1 -1 -1 -1 -0 -0 1 2 2 1 -0 -0 -1 -1 -1 -0 0 1 2 3 4 2 0 -1 -2 -2 -3 2 6 8 3 2 4 7 5 2 0 -0 1 1 0 -0 1 3 5 6 7 4 2 -1 -3 -2 -2 -3 -1 1 3 6 9 4 -1 -3 0 5 4 1 -0 2 5 8 10 5 3 2 3 1 1 2 3 3 3 1
-3 -3 -2 -2 -1 -0 0 0 1 1 2 2 2 1 1 0 0 0 0 0 0 1 2 1 -0 -2 -3 -3 -3 -2 1 4 4 2 2 11 16 14 5 1 -0 1 3 2 0 -0 2 4 6 7 6 1 -1 -2 -2 -2 -3 -3 -0 1 2 4 8 5 -0 -3 0 4 3 1 2 3 6 9 9 5 3 2 4 3 2 3 3 4 3 2
-2 -2 -2 -1 -0 0 1 1 2 2 3 2 2 1 1 1 1 1 1 1 1 1 1 1 0 -0 -0 -0 2 5 10 10 8 8 12 16 12 4 -3 0 3 6 6 4 2 3 5 6 7 8 6 2 1 1 -0 -2 -4 -3 1 2 2 4 8 6 1 -2 0 3 2 1 4 5 6 7 7 4 2 2 3 3 2 2 2 3 2 1
-1 -1 -0 0 1 2 2 2 3 3 3 2 1 1 1 1 2 2 2 2 2 2 2 2 1 1 0 1 4 7 9 8 10 13 18 14 5 -4 -5 3 8 9 6 2 1 1 4 5 6 5 4 2 2 2 -0 -3 -5 -4 1 2 3 4 7 7 3 -1 0 2 1 2 7 7 6 5 6 3 2 3 4 3 2 1 1 1 0 -1
-0 0 1 1 2 2 2 3 3 3 3 2 2 2 2 2 2 3 3 2 2 1 1 0 -1 -1 -1 1 5 7 7 7 9 13 16 12 4 -1 -1 7 8 6 1 -0 0 3 6 6 5 4 3 2 3 3 -0 -4 -7 -6 -0 1 1 1 3 5 3 1 0 1 2 4 9 6 3 2 3 4 3 4 5 4 2 1 -0 -1 -2 -3
1 1 1 1 2 2 2 2 2 2 2 2 2 2 2 3 3 3 2 1 1 2 1 1 0 1 4 8 10 10 8 10 13 16 16 11 3 -1 3 11 10 5 1 2 6 10 13 10 8 7 6 4 4 3 1 -4 -7 -7 -2 -0 -1 -2 -1 2 3 1 -1 -1 2 5 9 5 0 -1 3 5 5 4 6 5 3 0 -2 -3 -4 -4
1 1 1 1 1 1 1 1 2 2 2 2 2 3 3 3 2 2 1 1 2 2 2 2 3 5 8 10 10 8 8 12 16 18 16 7 0 -2 4 8 6 3 4 5 8 10 9 9 8 7 4 4 3 2 -0 -4 -8 -8 -3 0 -0 -2 -3 1 2 1 -1 -1 2 6 8 2 -2 -2 3 6 6 5 5 5 3 0 -2 -4 -4 -4
0 0 0 1 1 1 1 1 1 1 2 2 2 3 3 3 2 1 1 2 3 3 3 4 5 6 6 4 3 4 8 15 18 16 8 0 -5 -5 2 4 4 3 3 -0 -1 -0 2 8 10 8 5 4 2 -1 -4 -8 -12 -10 -1 3 2 0 -1 1 1 0 0 1 4 7 5 -1 -2 1 6 8 8 6 4 4 2 -0 -2 -3 -3 -3
-0 -0 -0 -0 0 0 0 1 1 1 2 2 2 2 2 2 2 2 2 3 3 4 4 5 6 7 8 7 7 8 12 16 13 8 1 -2 -1 2 6 7 8 8 4 1 -1 -1 2 7 8 9 10 7 3 -2 -6 -10 -11 -7 4 6 4 1 1 2 2 2 3 5 8 7 2 -2 0 5 11 11 10 7 4 2 1 -1 -2 -2 -2 -2
-0 -0 -0 -0 -0 0 0 0 1 1 1 2 2 2 2 2 2 3 3 3 4 4 5 6 6 7 8 10 11 12 12 10 5 0 -1 0 4 8 13 14 11 8 5 7 9 9 6 1 2 7 11 7 2 -3 -9 -10 -8 -2 5 5 3 1 1 3 4 4 4 8 10 7 -1 -1 4 11 13 11 9 7 4 2 1 -0 -1 -0 -0 1
0 0 0 0 0 0 0 0 1 1 1 1 1 1 1 2 2 3 3 4 4 5 6 5 5 6 7 8 7 6 4 3 3 3 4 4 3 5 9 8 4 1 1 3 6 7 6 3 5 9 12 10 5 -2 -12 -9 -6 -2 1 0 1 2 2 4 4 5 5 9 10 6 -3 0 7 13 12 8 6 6 4 2 1 1 0 1 2 2
0 0 0 0 0 0 0 1 1 1 1 1 1 1 1 2 2 3 3 4 5 6 6 5 5 6 7 7 6 5 4 5 7 7 5 5 7 9 10 4 -2 -5 -3 -3 -2 -0 2 4 4 4 7 11 7 -1 -10 -8 -6 -3 -0 -1 1 2 1 2 3 4 5 9 9 6 -0 3 8 11 8 3 3 4 4 2 2 2 2 2 2 2
0 0 0 -0 0 0 1 1 1 1 1 1 1 1 1 2 2 2 3 4 4 5 5 4 4 5 7 8 9 11 12 12 9 6 5 6 8 10 8 5 3 2 1 2 3 4 5 6 5 4 7 9 5 -2 -8 -7 -4 -2 -0 1 2 3 1 2 3 4 5 7 6 5 2 5 8 9 4 1 2 4 5 3 3 3 3 3 2 1
0 -0 -0 -0 -0 0 0 1 1 1 1 1 1 1 2 2 2 2 3 3 4 4 4 3 3 3 5 7 10 14 16 12 9 7 8 10 9 6 1 1 2 3 4 5 6 8 8 10 10 11 13 10 8 6 0 -6 -5 -2 -1 1 3 3 3 2 2 3 3 3 2 1 2 5 7 7 3 -0 1 4 5 4 4 4 4 2 1 -0
-0 -0 -0 -0 -0 -0 0 0 0 0 0 1 1 1 2 2 2 3 3 3 4 5 5 4 3 3 4 6 10 13 12 7 6 8 12 10 8 5 4 5 4 2 0 2 3 3 3 1 2 4 9 8 12 16 12 -3 -8 -9 -7 -3 0 3 4 2 0 -0 -0 1 1 1 2 6 7 6 2 -1 -1 0 2 2 3 3 3 1 -0 -2
0 0 -0 -0 -0 0 0 0 0 0 0 0 1 1 1 2 2 3 3 4 5 6 6 5 4 4 6 10 13 14 10 6 7 11 13 9 7 6 6 4 3 4 6 7 8 6 0 -7 -8 -4 4 8 17 24 20 4 -4 -8 -10 -1 6 8 6 2 -0 -2 -3 -2 -0 1 2 5 6 4 -0 -3 -4 -3 -2 -1 0 1 -0 -1 -1 -2
1 0 0 0 0 0 0 0 0 1 1 1 1 1 1 2 2 3 3 4 5 6 7 6 5 5 9 15 18 18 13 11 13 15 14 11 9 7 5 -1 -3 -2 3 7 8 6 3 -1 1 5 8 9 17 24 22 11 5 2 2 5 7 8 5 3 1 -3 -6 -6 -5 -3 -0 3 3 1 -3 -3 -4 -3 -3 -0 1 1 -1 -2 -3 -4
1 1 0 0 0 0 1 1 1 1 1 1 2 2 2 2 2 3 3 4 5 5 6 6 5 6 11 18 20 19 14 13 14 14 12 11 10 8 6 3 1 -0 -1 1 1 -0 -2 -1 3 9 11 12 19 24 18 10 4 1 0 -2 -4 -5 -1 4 3 -1 -5 -6 -7 -5 -1 2 2 -0 -3 -3 -3 -3 -2 1 2 1 -0 -2 -4 -5
1 1 1 1 1 0 0 1 1 1 1 1 1 2 2 2 2 2 2 3 4 4 4 3 3 5 11 18 20 18 13 10 9 9 9 10 9 8 6 5 3 0 -0 3 4 0 -7 -8 -7 -5 -3 5 14 21 20 14 8 4 1 -3 0 7 17 13 6 -0 -3 -6 -6 -5 -1 -1 -2 -3 -3 -3 -4 -4 -2 -0 0 0 -0 -2 -3 -3
1 1 1 1 1 0 0 0 1 1 1 1 1 1 1 2 2 1 1 2 2 3 3 1 1 3 9 16 18 17 13 10 9 9 10 9 7 5 4 3 -1 -3 -2 4 4 0 -5 -6 -3 1 3 5 11 16 14 13 7 2 4 5 10 14 18 8 1 -2 -3 -5 -5 -4 -3 -4 -4 -4 -2 -2 -3 -4 -3 -3 -1 0 1 -1 -2 -2
1 1 1 1 0 0 0 0 1 1 1 1 1 1 2 2 2 2 1 1 1 2 2 2 1 1 5 11 14 15 13 11 10 10 11 10 7 4 4 3 2 4 7 4 1 -2 -2 -2 -0 3 7 9 14 19 16 8 2 0 4 6 3 -2 -7 -4 -0 2 -0 -0 0 0 -1 -1 -0 1 2 1 -0 -1 -1 -0 1 3 4 2 -0 -2
2 1 1 0 0 0 0 0 1 1 1 1 1 2 2 2 3 3 2 2 2 2 2 1 0 1 3 7 10 11 11 10 9 10 11 10 7 5 3 3 4 5 7 3 -0 -2 -2 -3 -1 2 3 6 13 19 21 11 6 5 10 6 2 -0 3 12 13 11 5 4 4 2 0 -0 1 2 3 1 1 1 1 2 4 4 4 2 0 -0
2 1 1 1 0 -0 -0 0 1 1 2 2 2 2 2 3 3 3 3 2 3 3 3 1 0 1 4 6 8 9 9 9 9 10 12 11 8 5 1 1 2 2 2 2 1 -2 -8 -5 0 6 9 12 17 20 19 9 3 1 4 4 4 7 14 12 5 -0 2 6 7 6 3 2 2 2 -0 -1 -0 1 1 4 4 3 2 2 2 3
1 1 1 1 1 0 0 1 1 1 2 2 2 2 2 3 3 3 3 2 2 2 4 3 2 2 5 8 9 9 8 10 12 13 14 12 9 5 2 3 3 1 -3 -2 0 0 -4 1 6 12 15 19 23 25 21 9 3 1 1 1 4 6 7 -1 -4 -4 2 6 8 10 11 9 8 5 -1 1 2 2 0 3 4 4 1 2 4 7
1 1 1 1 1 1 1 1 1 1 1 2 2 2 2 2 3 3 3 3 2 2 2 4 5 5 6 8 8 8 8 10 13 16 16 14 9 4 2 5 5 3 -1 -3 -4 -4 -4 2 8 14 18 21 23 22 16 6 4 4 1 -0 1 2 1 2 8 14 14 9 8 8 10 11 8 4 1 5 4 1 0 2 4 5 2 0 3 7
1 1 0 0 0 0 1 1 1 1 1 1 2 2 2 2 2 2 2 3 2 2 3 6 7 8 8 7 6 6 7 10 14 16 16 13 10 7 6 7 5 2 -0 -2 -4 -4 -4 1 8 16 22 23 23 20 10 0 -0 2 2 0 -1 -0 1 10 19 23 17 10 7 6 7 9 6 2 2 3 1 -0 3 4 6 7 4 0 1 4
1 1 1 0 0 0 0 0 0 0 1 1 1 2 2 2 2 2 2 2 2 2 2 6 8 10 10 7 5 4 5 9 12 14 13 10 7 6 7 10 7 3 -2 -3 -2 -0 2 7 14 21 26 22 20 16 8 0 0 4 4 1 1 3 8 16 19 16 7 4 3 4 8 12 10 6 1 -1 -1 1 4 5 6 6 5 1 1 2
2 2 1 1 1 1 0 0 0 0 1 1 1 1 1 2 3 3 3 3 2 2 1 4 8 11 12 10 8 6 6 8 10 11 10 8 7 8 10 10 7 1 -3 -4 -4 -3 -3 -0 8 16 23 18 14 10 5 -3 -1 3 4 4 9 15 19 19 15 9 2 -0 -2 -1 2 8 9 5 -6 -6 -2 1 4 4 4 3 3 1 -1 -1
Height
5307 5310 5314 5317 5320 5324 5327 5329 5333 5337 5340 5343 5345 5348 5351 5354 5356 5359 5361 5363 5366 5369 5371 5375 5378 5382 5387 5392 5397 5403 5409 5414 5420 5427 5434 5441 5448 5456 5464 5471 5479 5487 5495 5504 5512 5520 5528 5536 5544 5551 5559 5567 5575 5582 5590 5597 5604 5610 5617 5623 5629 5636 5642 5647 5653 5658 5663 5667 5672 5677 5682 5686 5691 5694 5698 5702 5706 5710 5714 5716 5719 5722 5725 5729 5733 5734
5306 5309 5312 5315 5318 5321 5324 5327 5331 5334 5337 5340 5343 5346 5348 5351 5354 5356 5358 5360 5363 5365 5368 5372 5375 5379 5384 5389 5394 5400 5405 5411 5417 5424 5430 5437 5444 5452 5459 5467 5474 5482 5490 5498 5506 5515 5523 5531 5539 5548 5556 5564 5571 5579 5587 5594 5600 5607 5613 5619 5626 5632 5638 5644 5649 5654 5659 5664 5669 5673 5678 5683 5687 5690 5694 5699 5703 5707 5710 5713 5715 5718 5722 5726 5730 5732
5304 5307 5310 5313 5316 5319 5322 5325 5328 5331 5334 5338 5340 5343 5346 5349 5351 5353 5355 5358 5360 5363 5365 5369 5372 5376 5381 5385 5391 5397 5402 5408 5414 5420 5426 5433 5440 5448 5456 5463 5471 5479 5486 5494 5502 5510 5519 5527 5535 5544 5553 5560 5568 5576 5583 5590 5597 5603 5609 5616 5622 5629 5634 5640 5645 5650 5656 5660 5665 5670 5674 5679 5683 5687 5691 5695 5699 5703 5707 5709 5711 5714 5718 5724 5728 5730
5303 5305 5308 5311 5314 5317 5320 5323 5326 5329 5332 5335 5338 5341 5344 5346 5348 5350 5353 5354 5357 5360 5363 5366 5369 5373 5378 5382 5388 5393 5399 5404 5410 5416 5422 5428 5436 5444 5452 5460 5468 5475 5483 5491 5499 5507 5515 5524 5532 5541 5549 5557 5565 5572 5579 5586 5593 5599 5606 5612 5619 5625 5631 5637 5642 5647 5653 5657 5662 5666 5670 5675 5679 5683 5687 5692 5696 5700 5703 5706 5709 5711 5715 5720 5725 5727
5301 5303 5306 5309 5312 5315 5318 5321 5324 5327 5330 5333 5336 5339 5341 5344 5346 5348 5350 5352 5354 5357 5360 5363 5366 5370 5375 5379 5384 5389 5394 5400 5405 5411 5417 5424 5432 5440 5448 5455 5463 5471 5479 5487 5495 5503 5512 5520 5529 5537 5545 5553 5561 5568 5575 5583 5589 5596 5602 5609 5615 5621 5627 5633 5639 5644 5649 5654 5658 5663 5667 5671 5676 5680 5684 5688 5693 5697 5699 5703 5706 5709 5712 5717 5720 5722
5299 5301 5304 5308 5310 5313 5316 5319 5322 5324 5328 5331 5333 5336 5339 5341 5343 5346 5348 5350 5352 5354 5357 5360 5364 5367 5372 5376 5381 5386 5391 5396 5402 5408 5414 5421 5428 5436 5443 5451 5458 5465 5474 5482 5490 5499 5508 5516 5525 5533 5541 5549 5556 5564 5571 5579 5585 5592 5599 5605 5611 5618 5624 5630 5636 5641 5646 5650 5655 5659 5664 5668 5672 5676 5680 5684 5689 5694 5696 5700 5703 5706 5709 5713 5717 5720
5297 5300 5303 5306 5308 5311 5314 5317 5319 5322 5325 5328 5331 5334 5336 5339 5341 5344 5345 5347 5349 5351 5354 5357 5361 5364 5369 5373 5378 5382 5387 5393 5399 5404 5411 5418 5425 5432 5439 5446 5453 5461 5469 5477 5486 5495 5504 5512 5520 5529 5537 5545 5553 5560 5568 5575 5582 5589 5596 5602 5608 5614 5620 5627 5633 5637 5642 5647 5652 5656 5660 5664 5669 5673 5677 5681 5686 5690 5693 5696 5700 5704 5707 5710 5714 5718
5296 5298 5301 5304 5306 5309 5312 5314 5317 5320 5323 5326 5329 5331 5334 5336 5339 5341 5343 5344 5346 5349 5352 5355 5359 5362 5366 5370 5375 5379 5384 5390 5395 5401 5408 5414 5421 5427 5434 5441 5449 5457 5465 5474 5482 5491 5500 5508 5516 5524 5533 5541 5549 5557 5564 5571 5579 5585 5592 5599 5605 5610 5617 5624 5629 5634 5639 5644 5649 5653 5657 5662 5666 5670 5674 5678 5682 5686 5689 5693 5696 5700 5704 5708 5712 5716
5294 5297 5299 5302 5304 5307 5309 5312 5315 5317 5320 5323 5326 5329 5331 5334 5336 5339 5340 5343 5344 5347 5349 5353 5356 5360 5364 5367 5372 5376 5381 5387 5392 5398 5404 5410 5416 5423 5429 5437 5445 5453 5462 5470 5479 5488 5496 5505 5513 5521 5530 5538 5546 5554 5561 5568 5575 5582 5589 5595 5601 5607 5613 5620 5625 5630 5635 5641 5645 5650 5654 5659 5663 5668 5671 5675 5679 5682 5686 5690 5694 5697 5701 5705 5709 5713
5293 5295 5297 5300 5303 5305 5307 5310 5313 5315 5318 5321 5324 5326 5329 5331 5334 5336 5338 5340 5342 5344 5347 5350 5354 5357 5361 5364 5369 5373 5378 5383 5389 5395 5401 5406 5413 5419 5426 5434 5443 5451 5459 5468 5476 5485 5493 5502 5510 5519 5527 5535 5543 5551 5558 5565 5572 5579 5586 5592 5598 5604 5610 5616 5622 5627 5632 5638 5642 5647 5651 5656 5661 5665 5669 5672 5675 5679 5683 5687 5691 5695 5699 5703 5706 5709
5292 5294 5296 5298 5301 5303 5306 5308 5310 5313 5316 5319 5322 5324 5327 5329 5331 5333 5335 5337 5339 5341 5344 5348 5351 5354 5358 5362 5366 5370 5375 5380 5385 5391 5397 5403 5409 5416 5424 5432 5441 5449 5458 5466 5474 5482 5490 5499 5508 5517 5525 5533 5540 5548 5555 5562 5569 5576 5582 5588 5594 5600 5606 5613 5618 5624 5629 5635 5639 5644 5649 5654 5659 5663 5666 5669 5672 5676 5680 5685 5689 5692 5696 5700 5704 5707
5290 5292 5294 5297 5299 5301 5304 5306 5309 5311 5314 5317 5319 5322 5324 5327 5329 5331 5333 5334 5336 5339 5342 5345 5349 5352 5356 5359 5363 5367 5372 5378 5383 5389 5394 5400 5407 5414 5422 5430 5439 5448 5457 5464 5472 5480 5488 5497 5505 5514 5522 5530 5538 5545 5552 5559 5566 5572 5579 5585 5591 5597 5603 5609 5615 5621 5627 5632 5637 5641 5646 5651 5656 5659 5662 5665 5669 5673 5678 5682 5686 5690 5694 5698 5701 5704
5289 5291 5293 5295 5297 5299 5302 5304 5307 5309 5312 5314 5316 5319 5321 5324 5326 5328 5330 5332 5334 5337 5340 5343 5346 5350 5353 5356 5360 5364 5369 5375 5381 5386 5392 5399 5406 5413 5421 5430 5440 5449 5457 5464 5472 5479 5487 5495 5503 5511 5519 5527 5534 5542 5549 5556 5562 5569 5575 5582 5588 5594 5600 5606 5612 5618 5624 5629 5634 5639 5644 5649 5652 5655 5658 5661 5665 5670 5675 5680 5684 5688 5691 5695 5698 5701
5288 5289 5292 5294 5295 5297 5299 5302 5304 5307 5309 5311 5314 5316 5319 5321 5324 5326 5328 5330 5332 5334 5338 5341 5344 5347 5350 5354 5358 5363 5368 5374 5379 5384 5391 5398 5405 5412 5420 5430 5440 5449 5456 5464 5471 5479 5486 5494 5501 5509 5517 5524 5531 5539 5546 5553 5559 5565 5572 5578 5585 5591 5597 5603 5609 5615 5621 5626 5631 5636 5641 5645 5649 5652 5655 5658 5663 5668 5673 5677 5681 5685 5689 5692 5696 5699
5286 5288 5290 5292 5294 5295 5298 5300 5302 5304 5306 5309 5312 5314 5317 5320 5322 5324 5325 5327 5329 5332 5336 5339 5342 5344 5348 5352 5357 5362 5367 5373 5378 5384 5391 5397 5403 5410 5419 5429 5438 5446 5453 5461 5469 5477 5484 5491 5499 5507 5514 5521 5529 5535 5542 5549 5556 5561 5568 5575 5582 5588 5594 5600 5606 5612 5618 5623 5628 5633 5638 5643 5646 5649 5652 5656 5661 5666 5670 5674 5678 5682 5686 5690 5693 5696
5285 5287 5289 5290 5292 5294 5296 5298 5300 5302 5305 5307 5310 5313 5315 5317 5319 5321 5323 5325 5327 5330 5334 5337 5339 5343 5346 5350 5355 5360 5365 5371 5377 5384 5390 5396 5402 5409 5419 5428 5437 5444 5451 5459 5466 5474 5481 5489 5497 5504 5512 5519 5525 5532 5538 5546 5552 5558 5564 5572 5579 5586 5591 5598 5604 5609 5615 5620 5625 5630 5635 5639 5643 5646 5649 5653 5658 5663 5668 5672 5675 5679 5683 5687 5690 5694
5284 5286 5287 5289 5290 5292 5294 5296 5298 5300 5303 5305 5308 5310 5312 5314 5316 5319 5321 5323 5326 5329 5331 5334 5337 5341 5345 5349 5354 5359 5364 5370 5376 5382 5388 5395 5402 5410 5419 5428 5436 5443 5450 5457 5464 5472 5480 5488 5496 5503 5510 5516 5522 5528 5535 5541 5548 5554 5562 5570 5577 5583 5589 5595 5601 5606 5612 5617 5622 5627 5632 5636 5640 5643 5646 5651 5656 5661 5665 5669 5673 5676 5680 5684 5688 5692
5283 5284 5286 5287 5289 5290 5292 5294 5296 5298 5300 5303 5305 5308 5310 5312 5315 5317 5319 5321 5324 5327 5329 5332 5335 5339 5343 5348 5354 5359 5363 5369 5375 5381 5388 5394 5401 5409 5418 5426 5434 5440 5447 5455 5462 5471 5479 5487 5494 5501 5508 5514 5520 5526 5532 5539 5545 5553 5561 5568 5575 5581 5587 5593 5598 5604 5609 5614 5620 5625 5630 5634 5637 5641 5644 5649 5654 5658 5662 5666 5670 5674 5678 5682 5686 5689
5282 5283 5284 5286 5287 5289 5290 5292 5294 5296 5298 5301 5303 5305 5308 5310 5313 5315 5317 5319 5322 5324 5327 5331 5334 5338 5342 5347 5351 5356 5362 5368 5374 5381 5387 5394 5401 5409 5417 5424 5431 5438 5444 5452 5460 5469 5477 5484 5491 5499 5505 5512 5518 5524 5530 5536 5543 5550 5558 5565 5572 5579 5584 5590 5595 5601 5607 5612 5617 5622 5627 5632 5635 5639 5643 5647 5651 5655 5659 5664 5668 5672 5676 5680 5683 5687
5281 5282 5283 5284 5285 5287 5289 5290 5292 5294 5296 5299 5301 5304 5305 5308 5310 5312 5315 5317 5320 5323 5326 5329 5333 5337 5342 5346 5350 5355 5361 5367 5373 5379 5386 5392 5400 5408 5415 5423 5429 5436 5444 5451 5459 5467 5475 5483 5489 5496 5503 5510 5516 5522 5527 5534 5540 5547 5555 5562 5569 5576 5581 5587 5593 5598 5604 5609 5614 5620 5625 5629 5634 5637 5641 5644 5649 5653 5657 5661 5665 5669 5673 5677 5680 5684
5279 5280 5281 5283 5284 5285 5287 5288 5290 5292 5294 5297 5299 5301 5303 5306 5308 5310 5313 5315 5319 5322 5325 5329 5332 5336 5340 5345 5350 5355 5360 5366 5372 5379 5384 5391 5398 5406 5414 5420 5427 5434 5442 5450 5457 5465 5473 5480 5488 5494 5501 5508 5514 5519 5525 5531 5538 5545 5552 5560 5566 5572 5578 5584 5590 5595 5601 5607 5612 5617 5623 5628 5632 5635 5639 5642 5646 5650 5654 5659 5663 5667 5671 5674 5678 5682
5278 5279 5280 5281 5283 5284 5285 5287 5289 5290 5292 5295 5297 5299 5301 5304 5306 5309 5311 5314 5317 5320 5324 5327 5331 5334 5339 5344 5348 5353 5359 5364 5371 5378 5384 5391 5398 5405 5412 5419 5425 5433 5440 5448 5455 5462 5470 5478 5485 5491 5498 5505 5511 5516 5522 5529 5536 5543 5550 5557 5564 5569 5575 5581 5587 5593 5598 5604 5609 5615 5620 5625 5630 5633 5637 5640 5644 5649 5653 5657 5661 5664 5668 5672 5676 5679
5277 5278 5278 5279 5281 5282 5284 5285 5287 5288 5290 5293 5295 5297 5299 5302 5304 5307 5309 5313 5315 5318 5321 5325 5329 5334 5338 5342 5347 5352 5358 5364 5371 5378 5385 5392 5399 5404 5411 5418 5424 5431 5439 5446 5453 5460 5467 5475 5482 5488 5495 5501 5508 5514 5519 5526 5533 5541 5548 5554 5561 5567 5573 5579 5584 5590 5596 5601 5607 5613 5618 5623 5627 5631 5634 5638 5642 5646 5650 5654 5658 5662 5666 5669 5673 5676
5275 5276 5277 5278 5279 5280 5282 5283 5285 5287 5289 5291 5294 5296 5298 5301 5303 5306 5309 5311 5314 5318 5321 5325 5330 5334 5338 5343 5348 5353 5359 5366 5372 5379 5386 5392 5398 5404 5411 5417 5424 5430 5437 5444 5451 5458 5466 5474 5480 5486 5493 5499 5505 5512 5518 5524 5531 5538 5545 5552 5558 5564 5570 5576 5582 5587 5593 5599 5604 5610 5616 5620 5624 5628 5631 5634 5639 5644 5648 5652 5655 5659 5663 5667 5670 5673
5274 5274 5275 5276 5278 5279 5281 5282 5284 5286 5288 5290 5293 5295 5297 5299 5302 5304 5307 5310 5314 5318 5322 5326 5329 5333 5337 5342 5348 5354 5360 5366 5373 5380 5387 5391 5397 5403 5409 5416 5423 5430 5436 5443 5449 5456 5464 5473 5479 5485 5491 5497 5504 5509 5515 5522 5528 5535 5542 5549 5556 5562 5568 5573 5579 5584 5590 5596 5602 5608 5613 5617 5621 5625 5628 5632 5637 5641 5645 5649 5653 5657 5660 5664 5667 5670
5273 5274 5275 5276 5277 5279 5280 5282 5284 5285 5287 5289 5291 5293 5296 5298 5301 5304 5307 5310 5313 5317 5320 5324 5327 5331 5336 5342 5348 5354 5360 5366 5373 5379 5385 5390 5396 5402 5408 5415 5422 5429 5435 5442 5449 5456 5464 5472 5478 5484 5490 5496 5502 5508 5513 5519 5525 5532 5540 5547 5554 5560 5565 5571 5576 5582 5588 5593 5599 5605 5610 5614 5618 5622 5626 5630 5635 5639 5642 5646 5650 5654 5657 5661 5664 5667
5273 5274 5274 5275 5277 5278 5279 5281 5283 5284 5286 5288 5290 5293 5295 5298 5300 5303 5306 5309 5312 5315 5319 5323 5327 5332 5337 5343 5349 5354 5360 5366 5372 5378 5384 5390 5396 5401 5408 5414 5421 5428 5434 5441 5449 5457 5465 5472 5477 5483 5489 5495 5501 5506 5511 5517 5523 5530 5538 5545 5551 5557 5562 5568 5574 5579 5585 5590 5596 5602 5607 5612 5616 5620 5624 5628 5633 5636 5640 5643 5647 5650 5654 5658 5661 5665
5272 5273 5274 5275 5276 5277 5279 5280 5282 5284 5286 5288 5290 5292 5294 5297 5300 5302 5305 5308 5311 5315 5319 5323 5328 5333 5338 5344 5349 5354 5360 5366 5372 5378 5384 5390 5394 5399 5406 5414 5420 5427 5434 5441 5449 5456 5463 5471 5476 5481 5487 5494 5499 5505 5510 5515 5520 5527 5534 5542 5549 5554 5559 5565 5571 5577 5583 5588 5594 5599 5604 5609 5614 5618 5622 5626 5630 5634 5637 5640 5644 5647 5651 5654 5658 5662
5272 5273 5274 5275 5276 5277 5279 5280 5281 5283 5285 5287 5289 5291 5294 5296 5299 5302 5304 5308 5312 5315 5319 5323 5328 5333 5338 5343 5348 5354 5360 5366 5373 5379 5384 5389 5392 5397 5404 5412 5419 5426 5433 5440 5447 5454 5462 5469 5475 5481 5487 5493 5498 5503 5508 5513 5518 5525 5533 5539 5546 5552 5557 5563 5569 5575 5580 5586 5592 5597 5602 5607 5612 5617 5620 5624 5627 5631 5634 5638 5641 5644 5648 5652 5655 5659
5273 5273 5274 5275 5276 5277 5278 5279 5281 5283 5285 5287 5289 5291 5293 5296 5299 5302 5305 5309 5312 5315 5319 5324 5329 5333 5338 5344 5349 5355 5360 5367 5373 5379 5383 5386 5391 5396 5404 5411 5418 5425 5432 5439 5446 5454 5463 5469 5475 5481 5486 5492 5496 5501 5506 5511 5516 5524 5532 5538 5544 5551 5556 5562 5567 5573 5579 5584 5589 5594 5600 5605 5610 5614 5618 5621 5624 5628 5632 5635 5638 5642 5646 5649 5653 5657
5273 5274 5274 5275 5276 5277 5278 5279 5281 5283 5284 5286 5289 5291 5293 5295 5299 5302 5305 5309 5312 5316 5320 5324 5329 5334 5339 5344 5350 5355 5360 5366 5372 5377 5380 5384 5389 5396 5404 5411 5418 5424 5431 5438 5446 5454 5461 5468 5474 5479 5485 5490 5495 5499 5504 5509 5515 5523 5531 5537 5544 5549 5555 5560 5566 5571 5577 5582 5587 5592 5597 5603 5608 5612 5615 5618 5622 5625 5629 5633 5636 5640 5644 5647 5651 5655
5274 5274 5275 5275 5276 5277 5279 5280 5281 5283 5284 5286 5288 5290 5293 5296 5299 5302 5305 5309 5312 5316 5320 5325 5329 5334 5338 5343 5348 5353 5359 5365 5370 5374 5378 5383 5389 5397 5404 5411 5417 5423 5430 5437 5443 5449 5456 5465 5473 5479 5485 5490 5494 5498 5502 5507 5514 5522 5530 5536 5542 5548 5554 5559 5564 5569 5574 5579 5584 5589 5595 5600 5605 5608 5612 5615 5619 5623 5627 5630 5634 5638 5642 5645 5649 5653
5274 5275 5275 5276 5277 5278 5279 5280 5281 5283 5284 5286 5289 5291 5293 5296 5299 5302 5305 5309 5313 5317 5321 5325 5330 5334 5339 5343 5348 5352 5358 5363 5368 5373 5378 5384 5390 5397 5404 5409 5415 5423 5430 5436 5442 5448 5454 5464 5472 5479 5484 5489 5494 5497 5501 5507 5513 5520 5527 5534 5540 5546 5552 5557 5562 5567 5571 5576 5581 5587 5593 5598 5601 5604 5608 5612 5616 5620 5624 5629 5633 5636 5640 5643 5647 5650
5275 5275 5276 5277 5278 5279 5279 5281 5282 5284 5285 5287 5289 5291 5294 5297 5300 5303 5306 5309 5313 5317 5321 5326 5330 5335 5340 5345 5350 5354 5359 5364 5369 5374 5379 5384 5391 5397 5404 5409 5416 5423 5429 5436 5443 5450 5457 5465 5473 5479 5484 5489 5493 5497 5501 5506 5513 5519 5525 5532 5539 5544 5550 5555 5559 5564 5568 5573 5578 5584 5590 5594 5598 5601 5604 5609 5613 5618 5622 5626 5630 5634 5638 5641 5644 5648
5276 5277 5277 5278 5279 5279 5280 5282 5283 5284 5286 5288 5290 5292 5294 5297 5300 5304 5307 5310 5314 5318 5322 5326 5330 5335 5341 5346 5351 5356 5361 5365 5370 5374 5379 5385 5390 5396 5402 5408 5414 5421 5428 5435 5443 5451 5459 5466 5474 5480 5484 5489 5494 5497 5501 5506 5512 5518 5524 5531 5537 5543 5548 5553 5557 5561 5566 5570 5576 5581 5587 5591 5594 5598 5601 5606 5611 5615 5620 5624 5628 5632 5635 5639 5642 5645
5277 5277 5278 5279 5279 5280 5281 5283 5284 5285 5287 5289 5291 5293 5295 5298 5301 5304 5308 5311 5315 5319 5323 5327 5331 5336 5341 5347 5352 5357 5362 5366 5370 5375 5380 5385 5390 5395 5400 5406 5412 5419 5427 5434 5442 5449 5457 5464 5472 5479 5485 5489 5494 5498 5502 5505 5511 5518 5524 5530 5536 5541 5546 5550 5555 5559 5564 5569 5574 5579 5583 5588 5591 5595 5599 5604 5609 5613 5618 5622 5625 5629 5632 5635 5639 5643
5278 5278 5279 5279 5280 5281 5283 5284 5285 5287 5288 5290 5292 5294 5297 5299 5302 5305 5309 5312 5316 5320 5324 5328 5333 5337 5343 5348 5353 5358 5363 5367 5371 5376 5381 5385 5390 5395 5400 5406 5413 5420 5429 5436 5442 5449 5455 5462 5470 5478 5485 5489 5493 5499 5503 5505 5511 5518 5524 5530 5535 5540 5545 5549 5553 5558 5562 5567 5572 5576 5581 5585 5589 5593 5597 5602 5606 5611 5615 5619 5622 5625 5628 5632 5635 5639
5279 5279 5280 5281 5282 5283 5284 5285 5286 5288 5289 5291 5293 5295 5298 5301 5304 5307 5310 5314 5318 5322 5326 5330 5334 5339 5344 5350 5355 5360 5364 5368 5372 5377 5382 5386 5390 5395 5401 5407 5414 5422 5428 5435 5442 5449 5455 5462 5470 5478 5485 5488 5493 5498 5502 5505 5510 5516 5522 5527 5533 5538 5543 5548 5552 5556 5561 5565 5570 5575 5579 5583 5587 5591 5595 5599 5604 5608 5613 5616 5619 5622 5625 5629 5633 5636
5281 5281 5282 5282 5283 5284 5285 5287 5288 5289 5291 5293 5294 5297 5299 5302 5305 5308 5311 5315 5319 5323 5327 5331 5336 5341 5346 5352 5357 5362 5365 5369 5373 5378 5383 5387 5392 5396 5401 5408 5415 5422 5427 5433 5440 5447 5454 5461 5468 5475 5482 5487 5491 5496 5500 5504 5508 5513 5519 5525 5531 5536 5542 5546 5550 5555 5559 5564 5569 5573 5577 5581 5584 5589 5593 5597 5601 5605 5609 5613 5616 5619 5622 5626 5630 5634
5282 5283 5283 5284 5285 5286 5287 5288 5289 5291 5293 5294 5296 5299 5301 5304 5306 5309 5313 5316 5320 5324 5328 5332 5337 5342 5348 5353 5358 5362 5365 5369 5374 5379 5383 5388 5392 5397 5402 5408 5414 5421 5427 5433 5439 5446 5453 5459 5465 5471 5477 5484 5488 5492 5497 5501 5505 5511 5518 5524 5530 5536 5541 5545 5549 5553 5558 5563 5567 5571 5574 5578 5582 5586 5590 5594 5599 5603 5607 5611 5614 5617 5620 5623 5627 5631
5284 5284 5285 5286 5287 5288 5289 5290 5291 5293 5294 5296 5298 5300 5303 5305 5308 5311 5314 5318 5322 5325 5329 5334 5338 5343 5348 5353 5358 5362 5366 5370 5374 5379 5383 5388 5392 5396 5402 5408 5414 5419 5425 5433 5439 5445 5452 5459 5466 5472 5478 5483 5487 5491 5497 5500 5505 5511 5517 5523 5529 5534 5539 5543 5547 5551 5556 5561 5565 5569 5572 5575 5579 5584 5589 5593 5598 5601 5605 5609 5613 5615 5618 5621 5624 5628
5286 5287 5287 5288 5289 5289 5290 5292 5293 5294 5296 5298 5300 5302 5304 5307 5310 5313 5316 5319 5323 5327 5330 5335 5339 5344 5349 5354 5358 5362 5366 5370 5374 5379 5383 5388 5392 5397 5402 5408 5413 5419 5425 5432 5438 5444 5451 5459 5466 5474 5479 5483 5487 5492 5497 5500 5505 5510 5516 5522 5527 5532 5536 5540 5545 5549 5554 5560 5564 5568 5571 5575 5579 5583 5588 5592 5597 5601 5604 5608 5611 5614 5617 5620 5624 5627
5288 5289 5289 5290 5291 5292 5293 5294 5295 5296 5298 5300 5302 5304 5306 5309 5312 5314 5318 5321 5324 5328 5331 5335 5339 5344 5349 5354 5358 5363 5366 5370 5374 5378 5383 5388 5392 5397 5402 5407 5414 5420 5427 5433 5439 5445 5452 5459 5467 5473 5478 5482 5487 5491 5495 5499 5504 5509 5513 5518 5524 5530 5535 5540 5544 5549 5553 5558 5563 5567 5571 5574 5578 5582 5587 5591 5596 5600 5604 5607 5610 5613 5615 5618 5622 5626
5291 5291 5292 5292 5293 5294 5295 5296 5297 5299 5300 5302 5304 5306 5309 5311 5314 5317 5320 5323 5326 5329 5333 5336 5340 5344 5348 5353 5358 5363 5367 5370 5374 5379 5383 5388 5392 5396 5401 5407 5413 5420 5427 5433 5439 5446 5453 5460 5467 5473 5477 5482 5486 5490 5496 5499 5503 5507 5512 5517 5522 5528 5532 5537 5542 5548 5552 5557 5561 5566 5569 5573 5577 5581 5586 5591 5595 5599 5603 5607 5609 5612 5614 5617 5620 5624
5293 5293 5294 5294 5295 5296 5297 5298 5300 5301 5303 5304 5306 5309 5311 5313 5316 5319 5322 5325 5328 5331 5335 5339 5342 5346 5350 5354 5359 5363 5368 5372 5376 5381 5385 5389 5393 5396 5401 5406 5413 5419 5425 5432 5439 5446 5454 5460 5466 5471 5476 5479 5484 5489 5494 5498 5502 5506 5511 5516 5521 5526 5530 5535 5540 5546 5551 5557 5561 5566 5569 5573 5576 5581 5586 5590 5595 5599 5603 5606 5609 5611 5613 5615 5618 5622
5295 5296 5296 5297 5298 5299 5299 5301 5302 5304 5305 5307 5309 5311 5313 5315 5318 5321 5324 5327 5330 5333 5337 5340 5343 5347 5351 5356 5360 5364 5369 5373 5378 5383 5387 5391 5394 5397 5401 5406 5412 5418 5424 5431 5438 5446 5453 5459 5464 5468 5473 5477 5481 5486 5492 5496 5501 5505 5510 5515 5519 5525 5531 5536 5542 5546 5551 5555 5560 5564 5568 5572 5576 5580 5584 5588 5593 5598 5601 5605 5608 5610 5612 5614 5617 5620
5298 5298 5299 5299 5300 5301 5302 5303 5304 5306 5307 5309 5311 5313 5315 5317 5320 5323 5326 5329 5332 5335 5339 5342 5345 5349 5353 5357 5362 5366 5370 5374 5379 5384 5389 5392 5395 5399 5402 5406 5412 5417 5423 5429 5437 5445 5451 5456 5461 5465 5470 5474 5479 5485 5491 5496 5500 5504 5509 5514 5519 5524 5530 5535 5541 5545 5549 5554 5558 5563 5567 5571 5575 5579 5582 5586 5591 5596 5600 5604 5606 5609 5611 5613 5616 5619
5300 5301 5301 5302 5303 5304 5304 5306 5307 5308 5309 5311 5313 5315 5317 5319 5322 5325 5328 5331 5334 5338 5341 5344 5347 5350 5354 5358 5362 5366 5370 5375 5380 5384 5389 5392 5395 5399 5403 5408 5413 5418 5423 5429 5435 5443 5449 5454 5459 5464 5469 5473 5478 5484 5489 5495 5499 5504 5508 5513 5519 5524 5529 5534 5539 5543 5547 5552 5556 5561 5565 5569 5573 5577 5581 5585 5590 5595 5599 5602 5604 5607 5609 5612 5614 5618
5303 5303 5304 5304 5305 5306 5307 5308 5309 5310 5312 5313 5315 5317 5319 5322 5324 5327 5330 5333 5336 5339 5343 5345 5349 5352 5355 5359 5362 5366 5370 5375 5380 5384 5388 5392 5395 5399 5404 5409 5414 5419 5424 5429 5435 5441 5448 5453 5457 5462 5467 5471 5477 5483 5488 5494 5499 5504 5508 5513 5518 5523 5528 5533 5537 5541 5545 5550 5554 5559 5564 5568 5572 5574 5578 5583 5587 5592 5596 5599 5601 5604 5607 5610 5613 5617
5306 5306 5307 5307 5308 5309 5309 5311 5312 5313 5314 5316 5317 5319 5321 5324 5326 5329 5332 5335 5338 5341 5344 5347 5350 5353 5356 5359 5363 5367 5371 5376 5380 5384 5388 5392 5396 5400 5405 5410 5414 5418 5424 5429 5435 5442 5448 5452 5456 5460 5464 5470 5476 5482 5488 5493 5498 5503 5508 5513 5519 5524 5528 5532 5536 5539 5542 5547 5553 5558 5563 5568 5572 5575 5577 5580 5584 5588 5592 5595 5598 5601 5604 5608 5611 5615
5309 5309 5309 5310 5311 5311 5312 5313 5314 5315 5317 5318 5320 5321 5324 5326 5328 5331 5334 5337 5340 5343 5346 5349 5352 5354 5358 5361 5364 5368 5372 5376 5380 5384 5388 5392 5396 5401 5406 5410 5414 5418 5423 5429 5435 5441 5447 5451 5456 5460 5464 5470 5475 5481 5487 5492 5497 5502 5508 5514 5519 5523 5526 5530 5533 5536 5539 5544 5550 5556 5561 5567 5571 5574 5576 5578 5581 5585 5589 5592 5595 5598 5602 5605 5609 5613